Torna al catalogo

STARLINK-36938

AttivoComunicazioniSSO
NORAD 68124·PAYLOAD·🇺🇸 United States

Lanciato Mar 8, 2026 da Vandenberg Space Force Base

Loading…

Prossimi Passaggi (prossime 24 ore)

TLE

AggiornatoSource: CelesTrak SupGP

Epoca: Sep 15, 2026, 04:16 UTC

1 68124C 26044Z   26258.17826389  .00038090  00000+0  11827-2 0  2582
2 68124  97.2848 220.1775 0002099  95.3406  28.4211 15.33410634    11

Traccia STARLINK-36938 in tempo reale con AllMySat

Download on the App Store